Time,TemperatureF,DewpointF,PressureIn,WindDirection,WindDirectionDegrees,WindSpeedMPH,WindSpeedGustMPH,Humidity,HourlyPrecipIn,Conditions,Clouds,dailyrainin,SolarRadiationWatts/m^2,SoftwareType,DateUTC
2013-03-31 00:00:00,38.7,26.0,30.07,NNE,20,1.2,2.3,60,0.00,CLR,,0.00,0.0,WeatherDisplay:10.37,2013-03-31 04:00:00,
2013-03-31 00:05:00,38.7,26.0,30.07,NNE,20,0.0,0.0,60,0.00,CLR,,0.00,0.0,WeatherDisplay:10.37,2013-03-31 04:05:00,
2013-03-31 00:10:00,38.8,26.1,30.07,NNE,20,1.0,3.5,60,0.00,CLR,,0.00,0.0,WeatherDisplay:10.37,2013-03-31 04:10:00,
2013-03-31 00:15:00,38.9,26.2,30.07,NNE,20,0.9,2.3,60,0.00,CLR,,0.00,0.0,WeatherDisplay:10.37,2013-03-31 04:15:00,
2013-03-31 00:20:00,39.0,26.3,30.07,NNE,20,0.0,0.0,60,0.00,CLR,,0.00,0.0,WeatherDisplay:10.37,2013-03-31 04:20:00,
2013-03-31 00:25:00,39.0,26.3,30.07,NNE,20,1.7,2.3,60,0.00,CLR,,0.00,0.0,WeatherDisplay:10.37,2013-03-31 04:25:00,
2013-03-31 00:30:00,39.2,26.1,30.07,NNE,20,0.0,1.2,59,0.00,CLR,,0.00,0.0,WeatherDisplay:10.37,2013-03-31 04:30:00,
2013-03-31 00:35:00,39.2,26.1,30.07,NNE,20,2.0,3.5,59,0.00,CLR,,0.00,0.0,WeatherDisplay:10.37,2013-03-31 04:35:00,
2013-03-31 00:40:00,39.5,25.9,30.07,NNE,20,2.7,3.5,58,0.00,CLR,,0.00,0.0,WeatherDisplay:10.37,2013-03-31 04:40:00,
2013-03-31 00:45:00,39.4,25.8,30.08,NNE,20,1.8,3.5,58,0.00,CLR,,0.00,0.0,WeatherDisplay:10.37,2013-03-31 04:45:00,
2013-03-31 00:50:00,39.2,26.1,30.08,NNE,20,1.6,3.5,59,0.00,CLR,,0.00,0.0,WeatherDisplay:10.37,2013-03-31 04:50:00,
2013-03-31 00:55:00,39.0,26.3,30.08,NNE,20,1.3,3.5,60,0.00,CLR,,0.00,0.0,WeatherDisplay:10.37,2013-03-31 04:55:00,
2013-03-31 01:00:00,38.9,26.2,30.08,NNE,20,0.5,2.3,60,0.00,CLR,,0.00,0.0,WeatherDisplay:10.37,2013-03-31 05:00:00,
2013-03-31 01:05:00,38.8,26.5,30.08,NNE,20,0.6,3.0,61,0.00,CLR,,0.00,0.0,WeatherDisplay:10.37,2013-03-31 05:05:00,
2013-03-31 01:10:00,38.8,26.1,30.08,NNE,20,2.3,3.5,60,0.00,CLR,,0.00,0.0,WeatherDisplay:10.37,2013-03-31 05:10:00,
2013-03-31 01:15:00,39.2,26.1,30.08,NNE,20,1.9,3.5,59,0.00,CLR,,0.00,0.0,WeatherDisplay:10.37,2013-03-31 05:15:00,
2013-03-31 01:20:00,39.1,26.0,30.08,NNE,20,1.2,3.5,59,0.00,CLR,,0.00,0.0,WeatherDisplay:10.37,2013-03-31 05:20:00,
2013-03-31 01:25:00,39.0,26.3,30.08,NNE,20,0.4,3.0,60,0.00,CLR,,0.00,0.0,WeatherDisplay:10.37,2013-03-31 05:25:00,
2013-03-31 01:30:00,39.0,26.3,30.08,NNE,20,2.5,3.5,60,0.00,CLR,,0.00,0.0,WeatherDisplay:10.37,2013-03-31 05:30:00,
2013-03-31 01:35:00,38.9,25.8,30.08,NNE,20,0.8,2.3,59,0.00,CLR,,0.00,0.0,WeatherDisplay:10.37,2013-03-31 05:35:00,
2013-03-31 01:40:00,38.7,26.0,30.08,NNE,20,1.5,2.3,60,0.00,CLR,,0.00,0.0,WeatherDisplay:10.37,2013-03-31 05:40:00,
2013-03-31 01:45:00,38.2,26.3,30.08,NNE,20,0.0,0.0,62,0.00,CLR,,0.00,0.0,WeatherDisplay:10.37,2013-03-31 05:45:00,
2013-03-31 01:50:00,37.9,26.8,30.08,NNE,20,0.0,0.0,64,0.00,CLR,,0.00,0.0,WeatherDisplay:10.37,2013-03-31 05:50:00,
2013-03-31 01:55:00,37.5,26.4,30.08,NNE,20,0.0,0.0,64,0.00,CLR,,0.00,0.0,WeatherDisplay:10.37,2013-03-31 05:55:00,
2013-03-31 02:00:00,36.9,26.2,30.07,NNE,20,0.0,0.0,65,0.00,CLR,,0.00,0.0,WeatherDisplay:10.37,2013-03-31 06:00:00,
2013-03-31 02:05:00,36.6,26.3,30.07,NNE,20,0.0,0.0,66,0.00,CLR,,0.00,0.0,WeatherDisplay:10.37,2013-03-31 06:05:00,
2013-03-31 02:10:00,36.5,26.2,30.07,NNE,20,0.0,0.0,66,0.00,CLR,,0.00,0.0,WeatherDisplay:10.37,2013-03-31 06:10:00,
2013-03-31 02:15:00,36.4,26.1,30.07,NNE,20,0.0,0.0,66,0.00,CLR,,0.00,0.0,WeatherDisplay:10.37,2013-03-31 06:15:00,
2013-03-31 02:20:00,36.2,25.9,30.07,NNE,20,0.0,0.0,66,0.00,CLR,,0.00,0.0,WeatherDisplay:10.37,2013-03-31 06:20:00,
2013-03-31 02:25:00,36.0,25.7,30.07,NNE,20,0.0,0.0,66,0.00,CLR,,0.00,0.0,WeatherDisplay:10.37,2013-03-31 06:25:00,
2013-03-31 02:30:00,36.0,25.7,30.07,NNE,20,0.0,0.0,66,0.00,CLR,,0.00,0.0,WeatherDisplay:10.37,2013-03-31 06:30:00,
2013-03-31 02:35:00,35.8,25.9,30.07,NNE,20,0.0,0.0,67,0.00,CLR,,0.00,0.0,WeatherDisplay:10.37,2013-03-31 06:35:00,
2013-03-31 02:40:00,35.6,25.7,30.07,NNE,20,0.0,0.0,67,0.00,CLR,,0.00,0.0,WeatherDisplay:10.37,2013-03-31 06:40:00,
2013-03-31 02:45:00,35.5,26.0,30.07,NNE,20,0.0,0.0,68,0.00,CLR,,0.00,0.0,WeatherDisplay:10.37,2013-03-31 06:45:00,
2013-03-31 02:50:00,35.3,25.8,30.07,NNE,20,0.0,0.0,68,0.00,CLR,,0.00,0.0,WeatherDisplay:10.37,2013-03-31 06:50:00,
2013-03-31 02:55:00,35.2,25.7,30.07,NNE,20,0.0,0.0,68,0.00,CLR,,0.00,0.0,WeatherDisplay:10.37,2013-03-31 06:55:00,
2013-03-31 03:00:00,35.1,25.9,30.07,NNE,20,0.0,0.0,69,0.00,CLR,,0.00,0.0,WeatherDisplay:10.37,2013-03-31 07:00:00,
2013-03-31 03:05:00,34.8,25.7,30.07,NNE,20,0.0,0.0,69,0.00,CLR,,0.00,0.0,WeatherDisplay:10.37,2013-03-31 07:05:00,
2013-03-31 03:10:00,34.6,25.5,30.07,NNE,20,0.0,0.0,69,0.00,CLR,,0.00,0.0,WeatherDisplay:10.37,2013-03-31 07:10:00,
2013-03-31 03:15:00,34.4,25.6,30.07,NNE,20,0.0,0.0,70,0.00,CLR,,0.00,0.0,WeatherDisplay:10.37,2013-03-31 07:15:00,
2013-03-31 03:20:00,34.4,25.6,30.07,NNE,20,0.0,0.0,70,0.00,CLR,,0.00,0.0,WeatherDisplay:10.37,2013-03-31 07:20:00,
2013-03-31 03:25:00,34.1,25.7,30.07,NNE,20,0.0,0.0,71,0.00,CLR,,0.00,0.0,WeatherDisplay:10.37,2013-03-31 07:25:00,
2013-03-31 03:30:00,33.8,25.4,30.07,NNE,20,0.0,0.0,71,0.00,CLR,,0.00,0.0,WeatherDisplay:10.37,2013-03-31 07:30:00,
2013-03-31 03:35:00,33.7,25.6,30.07,NNE,20,0.0,0.0,72,0.00,CLR,,0.00,0.0,WeatherDisplay:10.37,2013-03-31 07:35:00,
2013-03-31 03:40:00,33.8,25.7,30.07,NNE,20,0.0,0.0,72,0.00,CLR,,0.00,0.0,WeatherDisplay:10.37,2013-03-31 07:40:00,
2013-03-31 03:45:00,33.8,25.7,30.07,NNE,20,0.0,0.0,72,0.00,CLR,,0.00,0.0,WeatherDisplay:10.37,2013-03-31 07:45:00,
2013-03-31 03:50:00,33.7,25.6,30.07,NNE,20,0.0,0.0,72,0.00,CLR,,0.00,0.0,WeatherDisplay:10.37,2013-03-31 07:50:00,
2013-03-31 03:55:00,33.6,25.5,30.07,NNE,20,0.0,0.0,72,0.00,CLR,,0.00,0.0,WeatherDisplay:10.37,2013-03-31 07:55:00,
2013-03-31 04:00:00,33.5,25.4,30.07,NNE,20,0.0,0.0,72,0.00,CLR,,0.00,0.0,WeatherDisplay:10.37,2013-03-31 08:00:00,
2013-03-31 04:05:00,33.3,25.6,30.07,NNE,20,0.0,0.0,73,0.00,CLR,,0.00,0.0,WeatherDisplay:10.37,2013-03-31 08:05:00,
2013-03-31 04:10:00,33.4,25.7,30.07,NNE,20,0.0,0.0,73,0.00,CLR,,0.00,0.0,WeatherDisplay:10.37,2013-03-31 08:10:00,
2013-03-31 04:15:00,33.5,25.8,30.07,NNE,20,0.0,0.0,73,0.00,CLR,,0.00,0.0,WeatherDisplay:10.37,2013-03-31 08:15:00,
2013-03-31 04:20:00,33.3,25.6,30.07,NNE,20,0.0,0.0,73,0.00,CLR,,0.00,0.0,WeatherDisplay:10.37,2013-03-31 08:20:00,
2013-03-31 04:25:00,33.3,25.9,30.07,NNE,20,0.0,0.0,74,0.00,CLR,,0.00,0.0,WeatherDisplay:10.37,2013-03-31 08:25:00,
2013-03-31 04:30:00,33.0,25.6,30.07,NNE,20,0.0,0.0,74,0.00,CLR,,0.00,0.0,WeatherDisplay:10.37,2013-03-31 08:30:00,
2013-03-31 04:35:00,32.6,25.2,30.07,NNE,20,0.0,0.0,74,0.00,CLR,,0.00,0.0,WeatherDisplay:10.37,2013-03-31 08:35:00,
2013-03-31 04:40:00,32.4,25.0,30.07,NNE,20,0.6,2.3,74,0.00,CLR,,0.00,0.0,WeatherDisplay:10.37,2013-03-31 08:40:00,
2013-03-31 04:45:00,32.5,25.5,30.07,NNE,20,0.0,2.3,75,0.00,CLR,,0.00,0.0,WeatherDisplay:10.37,2013-03-31 08:45:00,
2013-03-31 04:50:00,32.3,25.3,30.07,NNE,20,0.0,0.0,75,0.00,CLR,,0.00,0.0,WeatherDisplay:10.37,2013-03-31 08:50:00,
2013-03-31 04:55:00,32.0,25.3,30.07,NNE,20,0.0,0.0,76,0.00,CLR,,0.00,0.0,WeatherDisplay:10.37,2013-03-31 08:55:00,
2013-03-31 05:00:00,31.9,25.2,30.07,NNE,20,0.0,0.0,76,0.00,CLR,,0.00,0.0,WeatherDisplay:10.37,2013-03-31 09:00:00,
2013-03-31 05:05:00,31.5,25.1,30.07,NNE,20,0.0,0.0,77,0.00,CLR,,0.00,0.0,WeatherDisplay:10.37,2013-03-31 09:05:00,
2013-03-31 05:10:00,31.5,25.4,30.07,NNE,20,0.0,2.3,78,0.00,CLR,,0.00,0.0,WeatherDisplay:10.37,2013-03-31 09:10:00,
2013-03-31 05:15:00,31.6,25.5,30.07,NNE,20,0.0,0.0,78,0.00,CLR,,0.00,0.0,WeatherDisplay:10.37,2013-03-31 09:15:00,
2013-03-31 05:20:00,31.8,25.7,30.07,NNE,20,0.0,0.0,78,0.00,CLR,,0.00,0.0,WeatherDisplay:10.37,2013-03-31 09:20:00,
2013-03-31 05:25:00,31.8,25.7,30.07,NNE,20,0.0,0.0,78,0.00,CLR,,0.00,0.0,WeatherDisplay:10.37,2013-03-31 09:25:00,
2013-03-31 05:30:00,31.7,25.6,30.07,NNE,20,0.0,0.0,78,0.00,CLR,,0.00,0.0,WeatherDisplay:10.37,2013-03-31 09:30:00,
2013-03-31 05:35:00,31.7,25.6,30.07,NNE,20,0.0,0.0,78,0.00,CLR,,0.00,0.0,WeatherDisplay:10.37,2013-03-31 09:35:00,
2013-03-31 05:40:00,31.6,25.5,30.07,NNE,20,0.0,0.0,78,0.00,CLR,,0.00,0.0,WeatherDisplay:10.37,2013-03-31 09:40:00,
2013-03-31 05:45:00,31.7,25.6,30.07,NNE,20,0.0,0.0,78,0.00,CLR,,0.00,0.0,WeatherDisplay:10.37,2013-03-31 09:45:00,
2013-03-31 05:50:00,31.5,25.4,30.07,NNE,20,0.0,0.0,78,0.00,CLR,,0.00,0.0,WeatherDisplay:10.37,2013-03-31 09:50:00,
2013-03-31 05:55:00,31.4,25.3,30.07,NNE,20,0.0,0.0,78,0.00,CLR,,0.00,0.0,WeatherDisplay:10.37,2013-03-31 09:55:00,
2013-03-31 06:00:00,31.4,25.3,30.07,NNE,20,0.0,0.0,78,0.00,OVC,,0.00,0.0,WeatherDisplay:10.37,2013-03-31 10:00:00,
2013-03-31 06:05:00,31.3,25.2,30.07,NNE,20,0.0,0.0,78,0.00,OVC,,0.00,0.0,WeatherDisplay:10.37,2013-03-31 10:05:00,
2013-03-31 06:10:00,31.3,25.2,30.07,NNE,20,0.0,0.0,78,0.00,OVC,,0.00,0.0,WeatherDisplay:10.37,2013-03-31 10:10:00,
2013-03-31 06:15:00,31.4,25.3,30.07,NNE,20,0.0,0.0,78,0.00,OVC,,0.00,0.0,WeatherDisplay:10.37,2013-03-31 10:15:00,
2013-03-31 06:20:00,31.5,25.4,30.07,NNE,20,0.0,0.0,78,0.00,OVC,,0.00,0.0,WeatherDisplay:10.37,2013-03-31 10:20:00,
2013-03-31 06:25:00,31.6,25.2,30.07,NNE,20,0.0,0.0,77,0.00,OVC,,0.00,5.0,WeatherDisplay:10.37,2013-03-31 10:25:00,
2013-03-31 06:30:00,31.7,25.3,30.07,NNE,20,0.0,0.0,77,0.00,OVC,,0.00,7.0,WeatherDisplay:10.37,2013-03-31 10:30:00,
2013-03-31 06:35:00,31.7,25.0,30.07,NNE,20,0.0,0.0,76,0.00,OVC,,0.00,9.0,WeatherDisplay:10.37,2013-03-31 10:35:00,
2013-03-31 06:40:00,31.8,25.1,30.07,NNE,20,0.0,0.0,76,0.00,CLR,,0.00,12.0,WeatherDisplay:10.37,2013-03-31 10:40:00,
2013-03-31 06:45:00,31.7,25.0,30.07,NNE,20,0.0,0.0,76,0.00,CLR,,0.00,16.0,WeatherDisplay:10.37,2013-03-31 10:45:00,
2013-03-31 06:50:00,31.6,25.2,30.07,NNE,20,0.0,0.0,77,0.00,FEW,,0.00,19.0,WeatherDisplay:10.37,2013-03-31 10:50:00,
2013-03-31 06:55:00,32.0,25.9,30.07,NNE,20,0.0,0.0,78,0.00,SCT,,0.00,25.0,WeatherDisplay:10.37,2013-03-31 10:55:00,
2013-03-31 07:00:00,32.1,25.7,30.08,NNE,20,0.0,0.0,77,0.00,SCT,,0.00,28.0,WeatherDisplay:10.37,2013-03-31 11:00:00,
2013-03-31 07:05:00,32.4,26.0,30.08,NNE,20,0.0,0.0,77,0.00,SCT,,0.00,40.0,WeatherDisplay:10.37,2013-03-31 11:05:00,
2013-03-31 07:10:00,32.5,26.4,30.08,NNE,20,0.0,0.0,78,0.00,BKN,,0.00,35.0,WeatherDisplay:10.37,2013-03-31 11:10:00,
2013-03-31 07:15:00,32.6,26.2,30.08,NNE,20,0.0,0.0,77,0.00,BKN,,0.00,46.0,WeatherDisplay:10.37,2013-03-31 11:15:00,
2013-03-31 07:20:00,32.7,26.3,30.08,NNE,20,0.0,0.0,77,0.00,SCT,,0.00,51.0,WeatherDisplay:10.37,2013-03-31 11:20:00,
2013-03-31 07:25:00,33.0,26.3,30.08,NNE,20,0.0,0.0,76,0.00,SCT,,0.00,81.0,WeatherDisplay:10.37,2013-03-31 11:25:00,
2013-03-31 07:30:00,33.6,27.2,30.08,NNE,20,0.0,0.0,77,0.00,SCT,,0.00,84.0,WeatherDisplay:10.37,2013-03-31 11:30:00,
2013-03-31 07:35:00,34.2,27.7,30.08,NNE,20,0.0,0.0,77,0.00,CLR,,0.00,132.0,WeatherDisplay:10.37,2013-03-31 11:35:00,
2013-03-31 07:40:00,34.4,28.2,30.08,NNE,20,0.0,0.0,78,0.00,FEW,,0.00,139.0,WeatherDisplay:10.37,2013-03-31 11:40:00,
2013-03-31 07:45:00,34.4,28.2,30.08,NNE,20,0.0,0.0,78,0.00,CLR,,0.00,178.0,WeatherDisplay:10.37,2013-03-31 11:45:00,
2013-03-31 07:50:00,34.9,28.4,30.08,NNE,20,0.0,0.0,77,0.00,CLR,,0.00,244.0,WeatherDisplay:10.37,2013-03-31 11:50:00,
2013-03-31 07:55:00,35.5,28.7,30.08,NNE,20,0.0,0.0,76,0.00,CLR,,0.00,272.0,WeatherDisplay:10.37,2013-03-31 11:55:00,
2013-03-31 08:00:00,36.1,28.9,30.07,NNE,20,0.0,0.0,75,0.00,CLR,,0.00,288.0,WeatherDisplay:10.37,2013-03-31 12:00:00,
2013-03-31 08:05:00,37.1,28.9,30.07,NNE,20,0.0,0.0,72,0.00,CLR,,0.00,287.0,WeatherDisplay:10.37,2013-03-31 12:05:00,
2013-03-31 08:10:00,38.1,29.2,30.07,NNE,20,0.0,0.0,70,0.00,CLR,,0.00,329.0,WeatherDisplay:10.37,2013-03-31 12:10:00,
2013-03-31 08:15:00,38.8,29.5,30.07,NNE,20,0.0,0.0,69,0.00,CLR,,0.00,332.0,WeatherDisplay:10.37,2013-03-31 12:15:00,
2013-03-31 08:20:00,39.5,30.2,30.07,NNE,20,0.0,0.0,69,0.00,CLR,,0.00,322.0,WeatherDisplay:10.37,2013-03-31 12:20:00,
2013-03-31 08:25:00,40.1,30.4,30.07,NNE,20,0.0,0.0,68,0.00,CLR,,0.00,353.0,WeatherDisplay:10.37,2013-03-31 12:25:00,
2013-03-31 08:30:00,40.6,30.5,30.06,NNE,20,0.0,0.0,67,0.00,CLR,,0.00,362.0,WeatherDisplay:10.37,2013-03-31 12:30:00,
2013-03-31 08:35:00,41.1,30.6,30.06,NNE,20,0.0,0.0,66,0.00,CLR,,0.00,352.0,WeatherDisplay:10.37,2013-03-31 12:35:00,
2013-03-31 08:40:00,41.6,30.3,30.06,NNE,20,0.0,2.3,64,0.00,CLR,,0.00,411.0,WeatherDisplay:10.37,2013-03-31 12:40:00,
2013-03-31 08:45:00,42.4,30.3,30.07,NNE,20,0.0,0.0,62,0.00,CLR,,0.00,417.0,WeatherDisplay:10.37,2013-03-31 12:45:00,
2013-03-31 08:50:00,43.3,30.7,30.07,NNE,20,0.0,0.0,61,0.00,CLR,,0.00,431.0,WeatherDisplay:10.37,2013-03-31 12:50:00,
2013-03-31 08:55:00,44.1,30.7,30.07,NNE,20,0.0,0.0,59,0.00,CLR,,0.00,413.0,WeatherDisplay:10.37,2013-03-31 12:55:00,
2013-03-31 09:00:00,44.7,30.8,30.06,NNE,20,0.3,1.2,58,0.00,CLR,,0.00,422.0,WeatherDisplay:10.37,2013-03-31 13:00:00,
2013-03-31 09:05:00,45.1,30.8,30.06,NNE,20,0.0,1.2,57,0.00,CLR,,0.00,420.0,WeatherDisplay:10.37,2013-03-31 13:05:00,
2013-03-31 09:10:00,45.8,30.5,30.06,NNE,20,0.0,0.0,55,0.00,CLR,,0.00,436.0,WeatherDisplay:10.37,2013-03-31 13:10:00,
2013-03-31 09:15:00,46.5,30.3,30.06,NNE,20,1.8,2.3,53,0.00,CLR,,0.00,434.0,WeatherDisplay:10.37,2013-03-31 13:15:00,
2013-03-31 09:20:00,46.8,29.6,30.06,NNE,20,2.5,3.5,51,0.00,CLR,,0.00,457.0,WeatherDisplay:10.37,2013-03-31 13:20:00,
2013-03-31 09:25:00,47.0,29.3,30.06,NNE,20,2.7,6.0,50,0.00,CLR,,0.00,483.0,WeatherDisplay:10.37,2013-03-31 13:25:00,
2013-03-31 09:30:00,47.5,30.7,30.06,NNE,20,2.3,3.5,52,0.00,CLR,,0.00,513.0,WeatherDisplay:10.37,2013-03-31 13:30:00,
2013-03-31 09:35:00,48.0,30.2,30.06,NNE,20,1.7,3.5,50,0.00,CLR,,0.00,506.0,WeatherDisplay:10.37,2013-03-31 13:35:00,
2013-03-31 09:40:00,48.5,29.7,30.06,NNE,20,3.5,4.6,48,0.00,FEW,,0.00,438.0,WeatherDisplay:10.37,2013-03-31 13:40:00,
2013-03-31 09:45:00,48.7,29.4,30.06,NNE,20,2.6,3.5,47,0.00,FEW,,0.00,457.0,WeatherDisplay:10.37,2013-03-31 13:45:00,
2013-03-31 09:50:00,49.4,29.5,30.06,NNE,20,0.0,2.3,46,0.00,FEW,,0.00,443.0,WeatherDisplay:10.37,2013-03-31 13:50:00,
2013-03-31 09:55:00,50.0,28.9,30.06,NNE,20,5.3,7.0,44,0.00,CLR,,0.00,550.0,WeatherDisplay:10.37,2013-03-31 13:55:00,
2013-03-31 10:00:00,50.2,29.7,30.06,NNE,20,1.2,3.5,45,0.00,CLR,,0.00,585.0,WeatherDisplay:10.37,2013-03-31 14:00:00,
2013-03-31 10:05:00,50.9,29.7,30.06,NNE,20,5.2,6.0,44,0.00,CLR,,0.00,626.0,WeatherDisplay:10.37,2013-03-31 14:05:00,
2013-03-31 10:10:00,51.3,29.0,30.06,NNE,20,5.9,8.1,42,0.00,CLR,,0.00,631.0,WeatherDisplay:10.37,2013-03-31 14:10:00,
2013-03-31 10:15:00,51.9,29.5,30.05,NNE,20,2.3,5.8,42,0.00,CLR,,0.00,647.0,WeatherDisplay:10.37,2013-03-31 14:15:00,
2013-03-31 10:20:00,53.0,31.1,30.05,NNE,20,6.2,10.4,43,0.00,CLR,,0.00,647.0,WeatherDisplay:10.37,2013-03-31 14:20:00,
2013-03-31 10:25:00,53.0,29.3,30.05,NNE,20,6.8,10.4,40,0.00,CLR,,0.00,645.0,WeatherDisplay:10.37,2013-03-31 14:25:00,
2013-03-31 10:30:00,53.2,30.1,30.05,NNE,20,7.1,9.2,41,0.00,CLR,,0.00,640.0,WeatherDisplay:10.37,2013-03-31 14:30:00,
2013-03-31 10:35:00,53.6,29.8,30.05,NNE,20,4.7,8.0,40,0.00,CLR,,0.00,647.0,WeatherDisplay:10.37,2013-03-31 14:35:00,
2013-03-31 10:40:00,54.2,30.4,30.05,NNE,20,3.5,9.2,40,0.00,CLR,,0.00,668.0,WeatherDisplay:10.37,2013-03-31 14:40:00,
2013-03-31 10:45:00,54.6,30.7,30.05,NNE,20,2.6,10.4,40,0.00,CLR,,0.00,675.0,WeatherDisplay:10.37,2013-03-31 14:45:00,
2013-03-31 10:50:00,54.6,30.1,30.05,NNE,20,5.4,8.1,39,0.00,CLR,,0.00,613.0,WeatherDisplay:10.37,2013-03-31 14:50:00,
2013-03-31 10:55:00,55.0,31.7,30.05,NNE,20,2.7,7.0,41,0.00,CLR,,0.00,629.0,WeatherDisplay:10.37,2013-03-31 14:55:00,
2013-03-31 11:00:00,56.0,30.7,30.04,NNE,20,5.1,9.2,38,0.00,CLR,,0.00,645.0,WeatherDisplay:10.37,2013-03-31 15:00:00,
2013-03-31 11:05:00,56.0,30.1,30.04,NNE,20,9.9,13.0,37,0.00,FEW,,0.00,596.0,WeatherDisplay:10.37,2013-03-31 15:05:00,
2013-03-31 11:10:00,55.7,29.1,30.04,NNE,20,4.1,13.8,36,0.00,FEW,,0.00,619.0,WeatherDisplay:10.37,2013-03-31 15:10:00,
2013-03-31 11:15:00,56.3,31.0,30.04,NNE,20,2.1,10.0,38,0.00,CLR,,0.00,735.0,WeatherDisplay:10.37,2013-03-31 15:15:00,
2013-03-31 11:20:00,57.8,30.3,30.04,NNE,20,5.4,11.5,35,0.00,FEW,,0.00,682.0,WeatherDisplay:10.37,2013-03-31 15:20:00,
2013-03-31 11:25:00,57.0,28.9,30.04,NNE,20,7.5,10.4,34,0.00,FEW,,0.00,661.0,WeatherDisplay:10.37,2013-03-31 15:25:00,
2013-03-31 11:30:00,56.9,29.5,30.04,NNE,20,8.9,13.0,35,0.00,CLR,,0.00,737.0,WeatherDisplay:10.37,2013-03-31 15:30:00,
2013-03-31 11:35:00,56.8,28.0,30.04,NNE,20,11.0,15.0,33,0.00,CLR,,0.00,693.0,WeatherDisplay:10.37,2013-03-31 15:35:00,
2013-03-31 11:40:00,56.9,28.8,30.04,NNE,20,8.9,11.5,34,0.00,CLR,,0.00,744.0,WeatherDisplay:10.37,2013-03-31 15:40:00,
2013-03-31 11:45:00,56.7,28.6,30.03,NNE,20,13.5,19.6,34,0.00,CLR,,0.00,766.0,WeatherDisplay:10.37,2013-03-31 15:45:00,
2013-03-31 11:50:00,57.2,29.8,30.03,NNE,20,7.9,11.5,35,0.00,CLR,,0.00,729.0,WeatherDisplay:10.37,2013-03-31 15:50:00,
2013-03-31 11:55:00,57.9,30.4,30.03,NNE,20,5.2,13.8,35,0.00,FEW,,0.00,717.0,WeatherDisplay:10.37,2013-03-31 15:55:00,
2013-03-31 12:00:00,57.7,28.8,30.02,NNE,20,8.2,11.5,33,0.00,FEW,,0.00,589.0,WeatherDisplay:10.37,2013-03-31 16:00:00,
2013-03-31 12:05:00,57.8,29.6,30.02,NNE,20,7.6,10.4,34,0.00,FEW,,0.00,652.0,WeatherDisplay:10.37,2013-03-31 16:05:00,
2013-03-31 12:10:00,58.0,29.8,30.02,NNE,20,11.7,19.6,34,0.00,CLR,,0.00,703.0,WeatherDisplay:10.37,2013-03-31 16:10:00,
2013-03-31 12:15:00,58.2,29.2,30.02,NNE,20,7.7,15.0,33,0.00,FEW,,0.00,552.0,WeatherDisplay:10.37,2013-03-31 16:15:00,
2013-03-31 12:20:00,57.6,29.4,30.02,NNE,20,8.7,13.0,34,0.00,FEW,,0.00,663.0,WeatherDisplay:10.37,2013-03-31 16:20:00,
2013-03-31 12:25:00,57.9,29.7,30.02,NNE,20,9.0,9.2,34,0.00,FEW,,0.00,640.0,WeatherDisplay:10.37,2013-03-31 16:25:00,
2013-03-31 12:30:00,57.7,28.8,30.01,NNE,20,5.6,18.4,33,0.00,FEW,,0.00,675.0,WeatherDisplay:10.37,2013-03-31 16:30:00,
2013-03-31 12:36:00,57.9,28.9,30.01,NNE,20,4.8,12.7,33,0.00,FEW,,0.00,738.0,WeatherDisplay:10.37,2013-03-31 16:36:00,
2013-03-31 12:41:00,58.7,30.4,30.01,NNE,20,7.2,12.0,34,0.00,FEW,,0.00,724.0,WeatherDisplay:10.37,2013-03-31 16:41:00,
2013-03-31 12:46:00,58.2,29.2,30.01,NNE,20,11.9,12.0,33,0.00,CLR,,0.00,726.0,WeatherDisplay:10.37,2013-03-31 16:46:00,
2013-03-31 12:51:00,59.0,29.9,30.01,NNE,20,9.6,13.0,33,0.00,FEW,,0.00,754.0,WeatherDisplay:10.37,2013-03-31 16:51:00,
2013-03-31 12:56:00,58.4,30.1,30.01,NNE,20,11.0,15.0,34,0.00,FEW,,0.00,631.0,WeatherDisplay:10.37,2013-03-31 16:56:00,
2013-03-31 13:01:00,57.7,28.8,30.00,NNE,20,9.8,17.3,33,0.00,FEW,,0.00,640.0,WeatherDisplay:10.37,2013-03-31 17:01:00,
2013-03-31 13:06:00,57.7,28.0,30.00,NNE,20,16.3,25.3,32,0.00,SCT,,0.00,543.0,WeatherDisplay:10.37,2013-03-31 17:06:00,
2013-03-31 13:11:00,58.0,29.0,30.00,NNE,20,9.9,17.3,33,0.00,SCT,,0.00,541.0,WeatherDisplay:10.37,2013-03-31 17:11:00,
2013-03-31 13:16:00,58.3,29.3,29.99,NNE,20,7.7,12.7,33,0.00,BKN,,0.00,429.0,WeatherDisplay:10.37,2013-03-31 17:16:00,
2013-03-31 13:21:00,57.8,29.6,29.99,NNE,20,6.1,10.4,34,0.00,SCT,,0.00,499.0,WeatherDisplay:10.37,2013-03-31 17:21:00,
2013-03-31 13:26:00,57.9,29.7,29.99,NNE,20,10.6,19.6,34,0.00,SCT,,0.00,452.0,WeatherDisplay:10.37,2013-03-31 17:26:00,
2013-03-31 13:32:00,57.8,31.0,29.99,NNE,20,4.8,17.3,36,0.00,BKN,,0.00,429.0,WeatherDisplay:10.37,2013-03-31 17:32:00,
2013-03-31 13:37:00,58.0,29.8,29.99,NNE,20,7.2,12.7,34,0.00,SCT,,0.00,555.0,WeatherDisplay:10.37,2013-03-31 17:37:00,
2013-03-31 13:42:00,57.9,30.4,29.99,NNE,20,8.2,21.9,35,0.00,SCT,,0.00,548.0,WeatherDisplay:10.37,2013-03-31 17:42:00,
2013-03-31 13:47:00,57.3,29.9,29.98,NNE,20,11.5,20.7,35,0.00,SCT,,0.00,515.0,WeatherDisplay:10.37,2013-03-31 17:47:00,
2013-03-31 13:52:00,57.3,30.5,29.98,NNE,20,13.8,18.4,36,0.00,SCT,,0.00,501.0,WeatherDisplay:10.37,2013-03-31 17:52:00,
2013-03-31 13:57:00,58.0,31.2,29.98,NNE,20,14.0,24.0,36,0.00,SCT,,0.00,497.0,WeatherDisplay:10.37,2013-03-31 17:57:00,
2013-03-31 14:02:00,57.6,30.8,29.98,NNE,20,10.2,20.7,36,0.00,SCT,,0.00,504.0,WeatherDisplay:10.37,2013-03-31 18:02:00,
2013-03-31 14:07:00,57.8,31.0,29.98,NNE,20,9.7,14.0,36,0.00,SCT,,0.00,446.0,WeatherDisplay:10.37,2013-03-31 18:07:00,
2013-03-31 14:12:00,57.1,30.4,29.98,NNE,20,11.1,24.2,36,0.00,BKN,,0.00,406.0,WeatherDisplay:10.37,2013-03-31 18:12:00,
2013-03-31 14:18:00,56.8,30.8,29.97,NNE,20,8.6,19.6,37,0.00,SCT,,0.00,445.0,WeatherDisplay:10.37,2013-03-31 18:18:00,
2013-03-31 14:23:00,56.8,30.1,29.97,NNE,20,16.7,20.7,36,0.00,SCT,,0.00,425.0,WeatherDisplay:10.37,2013-03-31 18:23:00,
2013-03-31 14:28:00,56.9,30.2,29.97,NNE,20,9.3,19.6,36,0.00,SCT,,0.00,452.0,WeatherDisplay:10.37,2013-03-31 18:28:00,
2013-03-31 14:33:00,56.9,30.9,29.96,NNE,20,12.9,17.3,37,0.00,SCT,,0.00,432.0,WeatherDisplay:10.37,2013-03-31 18:33:00,
2013-03-31 14:38:00,57.0,30.3,29.96,NNE,20,15.9,23.0,36,0.00,BKN,,0.00,373.0,WeatherDisplay:10.37,2013-03-31 18:38:00,
2013-03-31 14:43:00,56.4,29.7,29.96,NNE,20,13.9,20.7,36,0.00,BKN,,0.00,313.0,WeatherDisplay:10.37,2013-03-31 18:43:00,
2013-03-31 14:48:00,56.1,30.2,29.96,NNE,20,11.7,17.3,37,0.00,BKN,,0.00,322.0,WeatherDisplay:10.37,2013-03-31 18:48:00,
2013-03-31 14:53:00,56.2,30.2,29.96,NNE,20,7.5,16.1,37,0.00,BKN,,0.00,295.0,WeatherDisplay:10.37,2013-03-31 18:53:00,
2013-03-31 14:58:00,56.6,30.6,29.96,NNE,20,10.4,20.7,37,0.00,BKN,,0.00,309.0,WeatherDisplay:10.37,2013-03-31 18:58:00,
2013-03-31 15:03:00,56.1,30.2,29.96,NNE,20,7.0,16.1,37,0.00,BKN,,0.00,297.0,WeatherDisplay:10.37,2013-03-31 19:03:00,
2013-03-31 15:08:00,56.2,30.2,29.96,NNE,20,13.2,19.6,37,0.00,BKN,,0.00,309.0,WeatherDisplay:10.37,2013-03-31 19:08:00,
2013-03-31 15:13:00,55.9,30.0,29.96,NNE,20,14.9,23.0,37,0.00,BKN,,0.00,318.0,WeatherDisplay:10.37,2013-03-31 19:13:00,
2013-03-31 15:18:00,56.0,30.7,29.95,NNE,20,9.7,16.1,38,0.00,SCT,,0.00,355.0,WeatherDisplay:10.37,2013-03-31 19:18:00,
2013-03-31 15:23:00,55.7,29.8,29.95,NNE,20,10.6,16.1,37,0.00,BKN,,0.00,318.0,WeatherDisplay:10.37,2013-03-31 19:23:00,
2013-03-31 15:28:00,55.5,30.3,29.95,NNE,20,8.6,13.8,38,0.00,BKN,,0.00,325.0,WeatherDisplay:10.37,2013-03-31 19:28:00,
2013-03-31 15:33:00,56.0,30.1,29.95,NNE,20,16.9,26.5,37,0.00,SCT,,0.00,350.0,WeatherDisplay:10.37,2013-03-31 19:33:00,
2013-03-31 15:38:00,55.6,29.0,29.95,NNE,20,14.2,21.9,36,0.00,BKN,,0.00,287.0,WeatherDisplay:10.37,2013-03-31 19:38:00,
2013-03-31 15:43:00,55.4,29.5,29.95,NNE,20,12.7,24.2,37,0.00,BKN,,0.00,250.0,WeatherDisplay:10.37,2013-03-31 19:43:00,
2013-03-31 15:48:00,55.1,29.9,29.95,NNE,20,17.7,26.5,38,0.00,BKN,,0.00,269.0,WeatherDisplay:10.37,2013-03-31 19:48:00,
2013-03-31 15:53:00,55.1,29.9,29.95,NNE,20,6.8,21.9,38,0.00,BKN,,0.00,244.0,WeatherDisplay:10.37,2013-03-31 19:53:00,
2013-03-31 15:58:00,55.0,29.8,29.95,NNE,20,13.1,21.0,38,0.00,BKN,,0.00,239.0,WeatherDisplay:10.37,2013-03-31 19:58:00,
2013-03-31 16:03:00,54.9,29.1,29.94,NNE,20,12.4,18.4,37,0.00,BKN,,0.00,230.0,WeatherDisplay:10.37,2013-03-31 20:03:00,
2013-03-31 16:08:00,54.6,28.2,29.94,NNE,20,18.1,31.1,36,0.00,BKN,,0.00,234.0,WeatherDisplay:10.37,2013-03-31 20:08:00,
2013-03-31 16:13:00,54.5,29.4,29.94,NNE,20,9.2,23.0,38,0.00,BKN,,0.00,236.0,WeatherDisplay:10.37,2013-03-31 20:13:00,
2013-03-31 16:18:00,54.8,29.7,29.94,NNE,20,10.0,18.4,38,0.00,BKN,,0.00,248.0,WeatherDisplay:10.37,2013-03-31 20:18:00,
2013-03-31 16:23:00,54.6,28.8,29.94,NNE,20,13.1,20.7,37,0.00,BKN,,0.00,227.0,WeatherDisplay:10.37,2013-03-31 20:23:00,
2013-03-31 16:28:00,54.4,29.3,29.94,NNE,20,11.1,19.6,38,0.00,BKN,,0.00,218.0,WeatherDisplay:10.37,2013-03-31 20:28:00,
2013-03-31 16:33:00,54.4,29.3,29.93,NNE,20,14.3,23.0,38,0.00,SCT,,0.00,236.0,WeatherDisplay:10.37,2013-03-31 20:33:00,
2013-03-31 16:38:00,54.6,29.5,29.93,NNE,20,11.8,15.0,38,0.00,SCT,,0.00,248.0,WeatherDisplay:10.37,2013-03-31 20:38:00,
2013-03-31 16:43:00,54.4,29.3,29.93,NNE,20,10.2,16.1,38,0.00,BKN,,0.00,206.0,WeatherDisplay:10.37,2013-03-31 20:43:00,
2013-03-31 16:48:00,54.1,30.3,29.93,NNE,20,12.4,19.6,40,0.00,BKN,,0.00,199.0,WeatherDisplay:10.37,2013-03-31 20:48:00,
2013-03-31 16:53:00,53.9,30.7,29.93,NNE,20,14.3,26.5,41,0.00,BKN,,0.00,160.0,WeatherDisplay:10.37,2013-03-31 20:53:00,
2013-03-31 16:58:00,53.8,31.8,29.93,NNE,20,10.6,12.7,43,0.00,OVC,,0.00,123.0,WeatherDisplay:10.37,2013-03-31 20:58:00,
2013-03-31 17:03:00,53.4,32.6,29.93,NNE,20,15.5,21.9,45,0.00,OVC,,0.00,98.0,WeatherDisplay:10.37,2013-03-31 21:03:00,
2013-03-31 17:08:00,53.1,33.4,29.93,NNE,20,11.1,19.6,47,0.00,OVC,,0.00,88.0,WeatherDisplay:10.37,2013-03-31 21:08:00,
2013-03-31 17:13:00,52.8,33.6,29.93,NNE,20,14.4,24.2,48,0.00,OVC,,0.00,74.0,WeatherDisplay:10.37,2013-03-31 21:13:00,
2013-03-31 17:18:00,52.8,34.2,29.93,NNE,20,7.7,17.3,49,0.00,OVC,,0.00,83.0,WeatherDisplay:10.37,2013-03-31 21:18:00,
2013-03-31 17:23:00,52.7,35.1,29.93,NNE,20,10.7,19.6,51,0.00,OVC,,0.00,79.0,WeatherDisplay:10.37,2013-03-31 21:23:00,
2013-03-31 17:29:00,52.6,35.5,29.93,NNE,20,6.4,15.0,52,0.00,OVC,,0.00,63.0,WeatherDisplay:10.37,2013-03-31 21:29:00,
2013-03-31 17:34:00,52.5,35.8,29.93,NNE,20,4.4,12.7,53,0.00,OVC,,0.00,49.0,WeatherDisplay:10.37,2013-03-31 21:34:00,
2013-03-31 17:39:00,52.4,35.8,29.93,NNE,20,8.2,18.4,53,0.00,OVC,,0.00,47.0,WeatherDisplay:10.37,2013-03-31 21:39:00,
2013-03-31 17:44:00,52.2,36.0,29.92,NNE,20,7.2,11.5,54,0.00,OVC,,0.00,44.0,WeatherDisplay:10.37,2013-03-31 21:44:00,
2013-03-31 17:49:00,52.1,35.9,29.92,NNE,20,9.0,12.7,54,0.00,OVC,,0.00,40.0,WeatherDisplay:10.37,2013-03-31 21:49:00,
2013-03-31 17:54:00,51.9,36.7,29.92,NNE,20,6.4,11.5,56,0.00,OVC,,0.00,40.0,WeatherDisplay:10.37,2013-03-31 21:54:00,
2013-03-31 17:59:00,51.7,36.5,29.92,NNE,20,10.5,20.0,56,0.00,OVC,,0.00,40.0,WeatherDisplay:10.37,2013-03-31 21:59:00,
2013-03-31 18:04:00,51.5,36.3,29.92,NNE,20,14.0,25.0,56,0.00,OVC,,0.00,40.0,WeatherDisplay:10.37,2013-03-31 22:04:00,
2013-03-31 18:09:00,51.4,36.2,29.92,NNE,20,14.4,26.5,56,0.00,OVC,,0.00,35.0,WeatherDisplay:10.37,2013-03-31 22:09:00,
2013-03-31 18:14:00,51.3,36.6,29.92,NNE,20,18.6,25.3,57,0.00,OVC,,0.00,26.0,WeatherDisplay:10.37,2013-03-31 22:14:00,
2013-03-31 18:19:00,51.2,36.9,29.92,NNE,20,4.2,6.9,58,0.00,OVC,,0.00,19.0,WeatherDisplay:10.37,2013-03-31 22:19:00,
2013-03-31 18:24:00,51.2,36.9,29.92,NNE,20,5.9,10.4,58,0.00,OVC,,0.00,14.0,WeatherDisplay:10.37,2013-03-31 22:24:00,
2013-03-31 18:29:00,51.0,37.2,29.92,NNE,20,7.3,19.0,59,0.00,OVC,,0.00,12.0,WeatherDisplay:10.37,2013-03-31 22:29:00,
2013-03-31 18:34:00,50.9,37.1,29.92,NNE,20,12.8,17.3,59,0.00,OVC,,0.00,11.0,WeatherDisplay:10.37,2013-03-31 22:34:00,
2013-03-31 18:39:00,50.8,37.0,29.92,NNE,20,5.7,12.7,59,0.00,OVC,,0.00,11.0,WeatherDisplay:10.37,2013-03-31 22:39:00,
2013-03-31 18:44:00,50.7,36.9,29.91,NNE,20,12.8,20.7,59,0.00,OVC,,0.00,9.0,WeatherDisplay:10.37,2013-03-31 22:44:00,
2013-03-31 18:49:00,50.7,37.3,29.91,NNE,20,7.1,11.5,60,0.00,OVC,,0.00,7.0,WeatherDisplay:10.37,2013-03-31 22:49:00,
2013-03-31 18:54:00,50.6,37.2,29.91,NNE,20,7.4,15.0,60,0.00,OVC,,0.00,5.0,WeatherDisplay:10.37,2013-03-31 22:54:00,
2013-03-31 18:59:00,50.6,37.2,29.91,NNE,20,6.0,11.5,60,0.00,OVC,,0.00,0.0,WeatherDisplay:10.37,2013-03-31 22:59:00,
2013-03-31 19:04:00,50.5,37.5,29.91,NNE,20,7.6,10.0,61,0.00,OVC,,0.00,0.0,WeatherDisplay:10.37,2013-03-31 23:04:00,
2013-03-31 19:09:00,50.5,37.5,29.91,NNE,20,9.2,11.5,61,0.00,OVC,,0.00,0.0,WeatherDisplay:10.37,2013-03-31 23:09:00,
2013-03-31 19:14:00,50.4,37.4,29.90,NNE,20,6.2,11.5,61,0.00,OVC,,0.00,0.0,WeatherDisplay:10.37,2013-03-31 23:14:00,
2013-03-31 19:19:00,50.3,37.8,29.90,NNE,20,9.0,19.6,62,0.00,OVC,,0.00,0.0,WeatherDisplay:10.37,2013-03-31 23:19:00,
2013-03-31 19:24:00,50.2,38.1,29.90,NNE,20,9.5,17.3,63,0.00,OVC,,0.00,0.0,WeatherDisplay:10.37,2013-03-31 23:24:00,
2013-03-31 19:29:00,50.1,38.0,29.91,NNE,20,11.2,18.0,63,0.00,OVC,,0.00,0.0,WeatherDisplay:10.37,2013-03-31 23:29:00,
2013-03-31 19:34:00,50.0,38.3,29.91,NNE,20,3.9,11.5,64,0.00,OVC,,0.00,0.0,WeatherDisplay:10.37,2013-03-31 23:34:00,
2013-03-31 19:39:00,49.8,38.5,29.91,NNE,20,3.5,10.4,65,0.00,OVC,,0.00,0.0,WeatherDisplay:10.37,2013-03-31 23:39:00,
2013-03-31 19:44:00,49.6,39.5,29.90,NNE,20,6.9,12.7,68,0.00,CLR,,0.00,0.0,WeatherDisplay:10.37,2013-03-31 23:44:00,
2013-03-31 19:49:00,49.2,39.5,29.90,NNE,20,10.2,23.0,69,0.00,CLR,,0.00,0.0,WeatherDisplay:10.37,2013-03-31 23:49:00,
2013-03-31 19:54:00,48.8,39.8,29.90,NNE,20,4.6,8.1,71,0.00,CLR,,0.00,0.0,WeatherDisplay:10.37,2013-03-31 23:54:00,
2013-03-31 19:59:00,48.4,40.1,29.89,NNE,20,4.0,8.0,73,0.00,CLR,,0.00,0.0,WeatherDisplay:10.37,2013-03-31 23:59:00,
2013-03-31 20:04:00,48.0,40.5,29.89,NNE,20,4.8,9.2,75,0.00,CLR,,0.00,0.0,WeatherDisplay:10.37,2013-04-01 00:04:00,
2013-03-31 20:09:00,47.7,40.5,29.89,NNE,20,3.4,4.6,76,0.00,CLR,,0.00,0.0,WeatherDisplay:10.37,2013-04-01 00:09:00,
2013-03-31 20:14:00,47.4,40.2,29.88,NNE,20,4.6,9.2,76,0.00,CLR,,0.00,0.0,WeatherDisplay:10.37,2013-04-01 00:14:00,
2013-03-31 20:19:00,47.3,40.5,29.88,NNE,20,3.0,5.8,77,0.00,CLR,,0.00,0.0,WeatherDisplay:10.37,2013-04-01 00:19:00,
2013-03-31 20:24:00,47.0,40.5,29.88,NNE,20,1.0,3.5,78,0.00,CLR,,0.00,0.0,WeatherDisplay:10.37,2013-04-01 00:24:00,
2013-03-31 20:29:00,46.9,40.7,29.87,NNE,20,0.5,3.5,79,0.00,CLR,,0.00,0.0,WeatherDisplay:10.37,2013-04-01 00:29:00,
2013-03-31 20:34:00,46.8,41.0,29.87,NNE,20,3.1,8.1,80,0.00,CLR,,0.00,0.0,WeatherDisplay:10.37,2013-04-01 00:34:00,
2013-03-31 20:39:00,46.7,40.9,29.87,NNE,20,0.2,3.5,80,0.00,CLR,,0.00,0.0,WeatherDisplay:10.37,2013-04-01 00:39:00,
2013-03-31 20:44:00,46.6,40.8,29.87,NNE,20,3.9,4.6,80,0.00,CLR,,0.00,0.0,WeatherDisplay:10.37,2013-04-01 00:44:00,
2013-03-31 20:49:00,46.6,40.8,29.85,NNE,20,0.5,3.5,80,0.00,CLR,,0.00,0.0,WeatherDisplay:10.37,2013-04-01 00:49:00,
2013-03-31 20:54:00,46.6,41.1,29.85,NNE,20,0.0,0.0,81,0.00,CLR,,0.00,0.0,WeatherDisplay:10.37,2013-04-01 00:54:00,
2013-03-31 20:59:00,46.6,41.1,29.85,NNE,20,0.6,4.6,81,0.00,CLR,,0.00,0.0,WeatherDisplay:10.37,2013-04-01 00:59:00,
2013-03-31 21:05:00,46.5,41.0,29.85,NNE,20,2.7,3.5,81,0.00,CLR,,0.00,0.0,WeatherDisplay:10.37,2013-04-01 01:05:00,
2013-03-31 21:10:00,46.5,40.7,29.85,NNE,20,0.7,0.0,80,0.00,CLR,,0.00,0.0,WeatherDisplay:10.37,2013-04-01 01:10:00,
2013-03-31 21:15:00,46.4,40.6,29.84,NNE,20,2.8,9.2,80,0.00,CLR,,0.00,0.0,WeatherDisplay:10.37,2013-04-01 01:15:00,
2013-03-31 21:20:00,46.4,40.3,29.84,NNE,20,0.0,4.0,79,0.00,CLR,,0.00,0.0,WeatherDisplay:10.37,2013-04-01 01:20:00,
2013-03-31 21:25:00,46.4,40.2,29.84,NNE,20,0.0,0.0,79,0.00,CLR,,0.00,0.0,WeatherDisplay:10.37,2013-04-01 01:25:00,
2013-03-31 21:30:00,46.4,40.2,29.83,NNE,20,1.0,8.0,79,0.00,CLR,,0.00,0.0,WeatherDisplay:10.37,2013-04-01 01:30:00,
2013-03-31 21:35:00,46.4,40.2,29.83,NNE,20,2.8,5.8,79,0.00,CLR,,0.00,0.0,WeatherDisplay:10.37,2013-04-01 01:35:00,
2013-03-31 21:40:00,46.5,40.0,29.83,NNE,20,0.0,0.0,78,0.00,CLR,,0.00,0.0,WeatherDisplay:10.37,2013-04-01 01:40:00,
2013-03-31 21:45:00,46.6,39.8,29.81,NNE,20,1.2,5.8,77,0.00,CLR,,0.00,0.0,WeatherDisplay:10.37,2013-04-01 01:45:00,
2013-03-31 21:50:00,46.7,39.5,29.81,NNE,20,3.7,5.8,76,0.00,CLR,,0.00,0.0,WeatherDisplay:10.37,2013-04-01 01:50:00,
2013-03-31 21:55:00,46.7,39.5,29.81,NNE,20,2.4,3.5,76,0.00,CLR,,0.00,0.0,WeatherDisplay:10.37,2013-04-01 01:55:00,
2013-03-31 22:00:00,46.7,39.5,29.80,NNE,20,1.6,10.4,76,0.00,CLR,,0.00,0.0,WeatherDisplay:10.37,2013-04-01 02:00:00,
2013-03-31 22:05:00,46.9,39.0,29.80,NNE,20,4.9,5.8,74,0.00,CLR,,0.00,0.0,WeatherDisplay:10.37,2013-04-01 02:05:00,
2013-03-31 22:10:00,47.0,39.1,29.80,NNE,20,2.0,8.1,74,0.00,CLR,,0.00,0.0,WeatherDisplay:10.37,2013-04-01 02:10:00,
2013-03-31 22:15:00,47.0,39.5,29.79,NNE,20,0.9,8.1,75,0.00,CLR,,0.00,0.0,WeatherDisplay:10.37,2013-04-01 02:15:00,
2013-03-31 22:20:00,46.7,39.5,29.79,NNE,20,6.9,9.2,76,0.00,CLR,,0.00,0.0,WeatherDisplay:10.37,2013-04-01 02:20:00,
2013-03-31 22:25:00,46.5,39.7,29.79,NNE,20,0.4,8.1,77,0.01,RA,,0.01,0.0,WeatherDisplay:10.37,2013-04-01 02:25:00,
2013-03-31 22:30:00,46.1,39.6,29.78,NNE,20,1.4,3.5,78,0.01,RA,,0.01,0.0,WeatherDisplay:10.37,2013-04-01 02:30:00,
2013-03-31 22:35:00,45.9,40.1,29.78,NNE,20,1.1,8.1,80,0.01,,,0.01,0.0,WeatherDisplay:10.37,2013-04-01 02:35:00,
2013-03-31 22:40:00,45.8,40.0,29.78,NNE,20,2.2,4.6,80,0.01,CLR,,0.01,0.0,WeatherDisplay:10.37,2013-04-01 02:40:00,
2013-03-31 22:45:00,45.8,40.3,29.76,NNE,20,1.2,4.0,81,0.01,CLR,,0.01,0.0,WeatherDisplay:10.37,2013-04-01 02:45:00,
2013-03-31 22:50:00,45.8,40.3,29.76,NNE,20,4.2,6.9,81,0.01,CLR,,0.01,0.0,WeatherDisplay:10.37,2013-04-01 02:50:00,
2013-03-31 22:55:00,45.9,40.7,29.76,NNE,20,3.3,5.8,82,0.02,RA,,0.02,0.0,WeatherDisplay:10.37,2013-04-01 02:55:00,
2013-03-31 23:00:00,45.8,40.9,29.75,NNE,20,1.0,8.0,83,0.00,RA,,0.02,0.0,WeatherDisplay:10.37,2013-04-01 03:00:00,
2013-03-31 23:05:00,45.7,41.1,29.74,NNE,20,3.6,6.9,84,0.02,,,0.02,0.0,WeatherDisplay:10.37,2013-04-01 03:05:00,
2013-03-31 23:10:00,45.6,41.4,29.74,NNE,20,1.8,6.9,85,0.02,CLR,,0.03,0.0,WeatherDisplay:10.37,2013-04-01 03:10:00,
2013-03-31 23:15:00,45.6,42.0,29.73,NNE,20,6.6,10.4,87,0.03,RA,,0.03,0.0,WeatherDisplay:10.37,2013-04-01 03:15:00,
2013-03-31 23:20:00,45.6,42.0,29.73,NNE,20,3.2,6.9,87,0.04,RA,,0.04,0.0,WeatherDisplay:10.37,2013-04-01 03:20:00,
2013-03-31 23:25:00,45.6,42.3,29.73,NNE,20,3.9,10.0,88,0.03,RA,,0.04,0.0,WeatherDisplay:10.37,2013-04-01 03:25:00,
2013-03-31 23:30:00,45.6,42.5,29.71,NNE,20,4.6,8.1,89,0.03,,,0.04,0.0,WeatherDisplay:10.37,2013-04-01 03:30:00,
2013-03-31 23:35:00,45.6,42.5,29.71,NNE,20,1.4,4.6,89,0.03,CLR,,0.04,0.0,WeatherDisplay:10.37,2013-04-01 03:35:00,
2013-03-31 23:40:00,45.6,42.5,29.71,NNE,20,1.9,4.6,89,0.03,CLR,,0.04,0.0,WeatherDisplay:10.37,2013-04-01 03:40:00,
2013-03-31 23:45:00,45.6,42.5,29.70,NNE,20,5.0,9.2,89,0.04,RA,,0.05,0.0,WeatherDisplay:10.37,2013-04-01 03:45:00,
2013-03-31 23:50:00,45.7,42.6,29.70,NNE,20,1.0,8.1,89,0.04,RA,,0.05,0.0,WeatherDisplay:10.37,2013-04-01 03:50:00,
2013-03-31 23:55:00,45.7,42.6,29.70,NNE,20,5.3,11.5,89,0.03,,,0.05,0.0,WeatherDisplay:10.37,2013-04-01 03:55:00,